カタログに戻る

IRIDIUM 33 DEB

運用中PO
NORAD 35052·DEBRIS·🇺🇸 United States

打ち上げ Sep 14, 1997 から Baikonur Cosmodrome

Loading…

次のパス (今後24時間)

TLE

最新Source: Space-Track

元期: Sep 14, 2026, 06:55 UTC

1 35052U 97051NY  26257.28874128  .00000343  00000-0  10534-3 0  9995
2 35052  86.3245 262.3132 0009226 256.0831 103.9342 14.38788935912378

AllMySatでIRIDIUM 33 DEBをリアルタイム追跡

Download on the App Store